This is the latest recevied weather packets stored in our database for station/object KO4LCK. If no packets are shown the sender has not sent any weather packets the latest 10 day(s).
| Time | Temp. | Humidity | Pressure | Rain* | Wind** | Luminosity | Snow |
|---|---|---|---|---|---|---|---|
| 1788035142 | 33.33° C | 53% | 1019.6 hPa | 0 mm | - | 583 W/m² | - |
| 1788034829 | 33.33° C | 53% | 1019.5 hPa | 0 mm | - | 589 W/m² | - |
| 1788034525 | 33.33° C | 54% | 1019.7 hPa | 0 mm | - | 601 W/m² | - |
| 1788034221 | 33.33° C | 55% | 1019.7 hPa | 0 mm | - | 602 W/m² | - |
| 1788033920 | 33.33° C | 54% | 1020 hPa | 0 mm | - | 595 W/m² | - |
| 1788033615 | 33.89° C | 53% | 1020.1 hPa | 0 mm | - | 152 W/m² | - |
| 1788033308 | 33.33° C | 53% | 1020.2 hPa | 0 mm | - | 641 W/m² | - |
| 1788033005 | 33.89° C | 54% | 1020.2 hPa | 0 mm | - | 672 W/m² | - |
| 1788032704 | 33.89° C | 53% | 1020 hPa | 0 mm | - | 670 W/m² | - |
| 1788032400 | 33.89° C | 54% | 1020.1 hPa | 0 mm | - | 680 W/m² | - |
| 1788032095 | 33.33° C | 55% | 1020.2 hPa | 0 mm | - | 697 W/m² | - |
| 1788031790 | 32.78° C | 57% | 1020.1 hPa | 0 mm | - | 706 W/m² | - |
| 1788031485 | 33.33° C | 55% | 1020.3 hPa | 0 mm | - | 700 W/m² | - |
| 1788031179 | 32.78° C | 57% | 1020.4 hPa | 0 mm | - | 699 W/m² | - |
| 1788030879 | 33.33° C | 54% | 1020.4 hPa | 0 mm | - | 713 W/m² | - |
| 1788030578 | 33.33° C | 56% | 1020.4 hPa | 0 mm | - | 728 W/m² | - |
| 1788030273 | 32.78° C | 56% | 1020.7 hPa | 0 mm | - | 717 W/m² | - |
| 1788029968 | 32.78° C | 57% | 1020.9 hPa | 0 mm | - | 745 W/m² | - |
| 1788029663 | 32.22° C | 59% | 1021 hPa | 0 mm | - | 726 W/m² | - |
| 1788029359 | 32.22° C | 58% | 1021 hPa | 0 mm | - | 796 W/m² | - |
| 1788029058 | 32.22° C | 61% | 1021.3 hPa | 0 mm | - | 427 W/m² | - |
| 1788028757 | 31.67° C | 60% | 1021 hPa | 0 mm | - | 189 W/m² | - |
| 1788028452 | 31.11° C | 64% | 1021.1 hPa | 0 mm | - | 448 W/m² | - |
| 1788028148 | 31.11° C | 63% | 1021.6 hPa | 0 mm | - | 778 W/m² | - |
| 1788027842 | 31.11° C | 62% | 1021.5 hPa | 0 mm | - | 396 W/m² | - |
* Rain latest hour (hover to see other rain measurements)
** Current wind speed in m/s (hover to see current wind gust speed)